{"data":{"norad_id":65229,"epoch":"2026-05-25T03:45:07.159104Z","epoch_age_seconds":51599,"freshness":"FRESH","line1":"1 65229U 25178B   26145.15633286  .00000054  00000+0  90584-4 0  9997","line2":"2 65229  86.5022  21.3490 0001698  84.7288 275.4040 13.24412885 37267","mean_motion":13.24412885,"eccentricity":0.0001698,"inclination_deg":86.5022,"raan_deg":21.349,"arg_perigee_deg":84.7288,"mean_anomaly_deg":275.404,"bstar":9.0584e-5,"rev_number":3726,"period_min":108.7274230196,"perigee_km":1166.6299081273,"apogee_km":1169.1925461053,"semimajor_km":7546.0482271163,"source":"CELESTRAK","updated_at":"2026-05-25T13:38:05.252789Z"}}